Regional Weather Roundup
Issued by NWS Cleveland, OH

Home | Current Version | Previous Version | Graphics & Text | Print | Product List | Glossary On
Versions: 1 2 3 4 5 6 7 8 9 10 11 12 13 14 15 16 17 18 19 20 21 22 23 24 25 26 27 28 29 30 31 32 33 34 35 36 37 38 39 40 41 42 43 44 45 46 47 48 49 50
000
ASUS41 KCLE 020402
RWRCLE
OHIO REGIONAL WEATHER ROUNDUP
NATIONAL WEATHER SERVICE CLEVELAND, OH
1200 AM EDT THU APR 02 2015

NOTE: "FAIR" INDICATES FEW OR NO CLOUDS BELOW 12,000 FEET WITH NO
SIGNIFICANT WEATHER AND/OR OBSTRUCTIONS TO VISIBILITY.

OHZ001>008-015>018-024>027-034-035-043-044-020500-
   NORTHWEST OHIO

CITY           SKY/WX    TMP DP  RH WIND       PRES   REMARKS
DEFIANCE       CLEAR     54  34  46 S9        30.00F
FINDLAY        CLEAR     47  33  58 S12       30.03F
TOLEDO EXPRESS PTCLDY    51  33  50 S9        30.00F
TOLEDO EXEC    PTCLDY    52  33  48 S14       30.02F
LIMA           CLEAR     47  33  58 S8        30.04F
$$

OHZ009>014-019>023-028>033-038-089-020500-
   NORTHEAST OHIO

CITY           SKY/WX    TMP DP  RH WIND       PRES   REMARKS
CLE-HOPKINS    MOCLDY    52  33  48 S12       30.08F
CLE-LAKEFRONT  CLEAR     52  33  48 S10       30.04F
CUY CO. ARPT   NOT AVBL
LORAIN-ELYRIA  PTCLDY    50  34  54 S12       30.05F
ASHTABULA      CLEAR     44  32  62 S8        30.08S
AKRON-CANTON   CLEAR     46  30  53 S9        30.09F
WOOSTER        PTCLDY    44  33  65 S8        30.08F
MANSFIELD      PTCLDY    49  33  54 S10       30.07F
YOUNGSTOWN     PTCLDY    48  29  47 S7        30.08F
$$

OHZ042-051>053-060>062-070>072-077>081-020500-
  SOUTHWEST OHIO

CITY           SKY/WX    TMP DP  RH WIND       PRES   REMARKS
CINC-COVINGTON MOCLDY    50  29  44 S7        30.05F
CINC-LUNKEN    PTCLDY    43  35  73 CALM      30.07F
HAMILTON       PTCLDY    46  33  60 E3        30.06F
DAYTON         FAIR      51  31  46 SE12      30.06F
WRIGHT-PAT AFB FAIR      50  31  47 SE7       30.06F
DAYTON GENERAL PTCLDY    54  27  35 SE7       30.05F
WILMINGTON     PTCLDY    48  29  47 SE8       30.08S
$$

OHZ036-037-039>041-045>050-054>059-063>069-073>076-082>088-020500-
  CENTRAL AND SOUTHEAST OHIO

CITY           SKY/WX    TMP DP  RH WIND       PRES   REMARKS
COLUMBUS       PTCLDY    52  30  43 S7        30.08F
OSU AIRPORT    CLEAR     52  30  43 SE5       30.08S
BOLTON FIELD   CLEAR    N/A N/A N/A S7        30.08F
RICKENBACK AFB CLEAR     47  30  52 S7        30.08S
NEWARK         CLEAR     40  33  76 CALM      30.09S
MARION         CLEAR     46  31  55 S7        30.07F
LANCASTER      CLEAR     41  32  70 S5        30.10S
ZANESVILLE     CLEAR     45  28  51 S7        30.10F
NEW PHILLY     CLEAR     41  31  67 SE6       30.11F
$$



USA.gov is the U.S. government's official web portal to all federal, state and local government web resources and services.